Regional Weather Roundup
Issued by NWS Sterling, VA

Home | Current Version | Previous Version | Text Only | Print | Product List | Glossary On
Versions: 1 2 3 4 5 6 7 8 9 10 11 12 13 14 15 16 17 18 19 20 21 22 23 24 25 26 27 28 29 30 31 32 33 34 35 36 37 38 39 40 41 42 43 44 45 46 47 48 49 50
000
ASUS41 KLWX 282310
RWRLWX

REGIONAL WEATHER ROUNDUP
NATIONAL WEATHER SERVICE BALTIMORE MD/WASHINGTON DC
700 PM EDT THU AUG 28 2014

Note: "FAIR" indicates few or no clouds below 12,000 feet
with no significant weather and/or obstructions to visibility.
 TC=TEMPERATURE CELSIUS

 * =Non NWS site. Station does not report precipitation (e.g. rain,
    snow, etc.), thunder, or fog.

DCZ001-MDZ009-015-VAZ040>042-051-053>054-290000-
WASHINGTON METRO
  /KDAA//-FT BELVOIR

CITY           SKY/WX    TMP DP  RH WIND       PRES   REMARKS
WASHINGTON NAT PTCLDY    83  52  34 N13       29.99R
DULLES         PTCLDY    79  53  40 N8        29.99S
ANDREWS AFB    CLEAR     78  56  47 N10       29.99R
QUANTICO       PTCLDY    83  61  47 N6        29.98R
COLLEGE PARK*  CLEAR     81  54  39 N7        29.99R
LEESBURG*      CLEAR     81  55  41 N6        30.01S
MANASSAS*      CLEAR     81  57  44 N10       29.99R
GAITHERSBURG*  CLEAR     75  54  46 CALM      30.04R

$$

MDZ006>007-011-014-290000-
BALTIMORE METRO

CITY           SKY/WX    TMP DP  RH WIND       PRES   REMARKS
BWI AIRPORT    PTCLDY    79  51  37 NW7       29.98S
MD SCIENCE CTR   N/A     79  54  41 MISG      29.99R
MARTIN STATE   PTCLDY    79  57  47 NW9       29.99R
ANNAPOLIS      CLEAR     80  56  43 NW10      29.98R

$$

MDZ012-015-019>023-290000-
MARYLAND EASTERN SHORE

CITY           SKY/WX    TMP DP  RH WIND       PRES   REMARKS
OCEAN CITY     PTCLDY    78  60  53 NW8       29.96R
SALISBURY      CLEAR     81  61  50 N6        29.97R
BAY BRIDGE AP*   N/A     79  55  44 N9        29.98R
CAMBRIDGE*     CLEAR     81  59  47 NW5       29.97S
EASTON*        CLEAR     81  59  47 N5        30.01

$$

MDZ017>025-290000-
SOUTHERN MARYLAND

CITY           SKY/WX    TMP DP  RH WIND       PRES   REMARKS
PATUXENT RIVER PTCLDY    79  63  57 N5        29.97R
ST INIGOES     CLEAR     79  63  57 NE3       29.96R
LEONARDTOWN*   CLEAR     79  55  44 CALM      29.99S

$$

MDZ003>005-290000-
NORTH CENTRAL MARYLAND

CITY           SKY/WX    TMP DP  RH WIND       PRES   REMARKS
FREDERICK*     CLEAR     79  57  47 NE8       30.03R
HAGERSTOWN APT CLEAR     75  51  43 N12       30.02S
WESTMINSTER*   CLEAR     75  54  46 N7        30.02S

$$

MDZ501>502-290000-
WESTERN MARYLAND

CITY           SKY/WX    TMP DP  RH WIND       PRES   REMARKS
OAKLAND*       CLEAR     63  50  63 NW7       30.14S
CUMBERLAND*    CLEAR     79  48  34 NW7       30.09R

$$

VAZ025>031-290000-
SHENANDOAH VALLEY

CITY           SKY/WX    TMP DP  RH WIND       PRES   REMARKS
WINCHESTER*    CLEAR     79  48  34 N7        30.02R
STAUNTON*      CLEAR     83  57  41 NE8       30.03S

$$

WVZ021-048>050-054>055-290000-
EASTERN WEST VIRGINIA PANHANDLE

CITY           SKY/WX    TMP DP  RH WIND       PRES   REMARKS
MARTINSBURG    CLEAR     79  45  29 N13       30.02R
PETERSBURG*    NOT AVBL

$$

VAZ036>039-050-290000-
CENTRAL FOOTHILLS

CITY           SKY/WX    TMP DP  RH WIND       PRES   REMARKS
CHARLOTTESVILL CLEAR     83  62  49 E6        29.98R
ORANGE*        CLEAR     82  61  47 CALM      30.00R

$$

VAZ055>057-290000-
NORTH AND CENTRAL PIEDMONT

CITY           SKY/WX    TMP DP  RH WIND       PRES   REMARKS
FREDERICKSBRG* CLEAR     84  62  48 E5        29.96S
STAFFORD*      CLEAR     81  63  53 N3        30.02R

$$

NCZ024-NYZ072-PAZ021-071-VAZ022-071-290000-
OTHER REGIONAL OBSERVATIONS

CITY           SKY/WX    TMP DP  RH WIND       PRES   REMARKS
NEW YORK CITY  PTCLDY    77  49  37 NW9G17    29.96R
PHILADELPHIA   PTCLDY    78  50  37 NW13      29.98R
PITTSBURGH     MOSUNNY   72  51  47 NW9       30.09S
ROANOKE        PTCLDY    85  64  49 NW12      30.02S
RICHMOND       MOCLDY    86  56  35 NE8       29.96R
RALEIGH        PTCLDY    88  70  55 CALM      29.97R HX  93

$$

ANZ530>537-290000-
MARINE OBSERVATIONS

STATION/POSITION TIME  TEMP    WIND        PRES
                       AIR SEA DIR/SP/G
                 (UTC) (F)     (DEG/KT/KT) (MB)
THOMAS PT LIGHT  2300   80 79  340/ 10/ 11 1015.9R
BALT KEY BRIDGE  2300   86     330/ 10/ 13 1015.0R
COVE POINT       2300   80     360/ 11/ 13 1014.8S
LEWISETTA        2300   82 81  330/  6/  8 1014.5S
SOLOMONS ISLAND  2300      81                N/A
PINEY POINT      2300          360/ 11/ 12   N/A

$$




USA.gov is the U.S. government's official web portal to all federal, state and local government web resources and services.